Location: Piolenc
(44.1794°N, 4.7641°E)
Time: 01:21:50
(UTC+00:00)

Meteor 1-16 Rocket - Pass Details

Date: 27 January 2021
Orbit: 790 x 908 km, 81.2° (Epoch: 27 February)

Event Time Altitude Azimuth Distance (km) Brightness Sun altitude
Rises 04:48:37 0° 192° (SSW) 3,507 7.3 -24.2°
Reaches altitude 10° 04:51:04 10° 194° (SSW) 2,577 6.6 -23.8°
Maximum altitude 04:56:59 78° 281° (W) 931 4.2 -22.7°
Drops below altitude 10° 05:02:56 10° 8° (N) 2,593 6.8 -21.7°
Sets 05:05:24 0° 10° (N) 3,530 7.5 -21.2°
